Home > Weather > Saint Helier > Past weeks

Flag for Jersey Past Weather in Saint Helier, Jersey — Yesterday and Last 2 Weeks

Now
57 °F

Scattered clouds.


Feels Like: 54 °F
Forecast: 59 / 64 °F
Wind: 14 mph from Southwest

Location: Jersey Airport

Current Time: Jun 29, 2016 at 9:02:45 PM

Latest Report: Jun 29, 2016 at 8:20 PM


Visibility: N/A

Pressure: 29.86 "Hg

Humidity: 100%

Dew Point: 57 °F

Location of Saint HelierLocation

Past Weather in Saint Helier — Graph

°F

Saint Helier Temperature Yesterday

Maximum temperature yesterday: 66 °F (at 3:20 PM)
Minimum temperature yesterday: 54 °F (at 6:20 AM)
Average temperature yesterday: 60 °F

High & Low Weather Summary for the Past Weeks

 TemperatureHumidityPressure
High73 °F (Jun 22, 2:50 PM)100% (Jun 15, 4:50 AM)30.33 "Hg (Jun 15, 4:50 AM)
Low54 °F (Jun 14, 8:50 PM)68% (Jun 28, 3:20 PM)29.47 "Hg (Jun 15, 3:50 AM)
Average59 °F93%30.01 "Hg
* Reported Jun 14 8:20 PM — Jun 29 8:20 PM, Saint Helier, Weather by CustomWeather, © 2016

Note: Actual official high and low records may vary slightly from our data, if they occured in-between our weather recording intervals... More about our weather records

Advertising

Saint Helier Weather History for the Previous 24 Hours

Scroll right to see more
 ConditionsComfort  
Time TempWeatherWind HumidityBarometerVisibility
8:20 PM
Wed, Jun 29
57 °FScattered clouds.14 mph100%29.86 "HgN/A
7:20 PM57 °FBroken clouds.17 mph100%29.83 "HgN/A
6:50 PM57 °FBroken clouds.14 mph100%29.86 "HgN/A
6:20 PM57 °FDrizzle. Broken clouds.13 mph100%29.86 "Hg4 mi
5:50 PM57 °FBroken clouds.18 mph100%29.86 "HgN/A
5:20 PM57 °FDrizzle. Fog.20 mph100%29.86 "Hg2 mi
4:50 PM57 °FDrizzle. Fog.16 mph100%29.86 "Hg1 mi
4:20 PM57 °FDrizzle. Partly sunny.20 mph100%29.86 "Hg2 mi
3:50 PM59 °FPartly sunny.14 mph94%29.89 "HgN/A
3:20 PM57 °FPartly sunny.13 mph100%29.89 "HgN/A
2:20 PM57 °FLight rain. Partly sunny.20 mph100%29.89 "HgN/A
1:50 PM57 °FRain. Partly sunny.14 mph94%29.92 "Hg6 mi
1:20 PM57 °FRain. Partly sunny.16 mph94%29.92 "Hg4 mi
12:50 PM57 °FLight rain. Partly sunny.15 mph94%29.92 "HgN/A
12:20 PM59 °FLight rain. Partly sunny.17 mph88%29.92 "Hg6 mi
11:50 AM59 °FPartly sunny.16 mph88%29.92 "HgN/A
11:20 AM59 °FScattered clouds.16 mph88%29.92 "HgN/A
10:50 AM59 °FPassing clouds.20 mph82%29.92 "HgN/A
10:20 AM59 °FScattered clouds.20 mph82%29.92 "HgN/A
9:20 AM59 °FScattered clouds.14 mph88%29.95 "HgN/A
8:50 AM59 °FScattered clouds.16 mph88%29.95 "HgN/A
8:20 AM57 °FScattered clouds.15 mph94%29.95 "HgN/A
7:50 AM57 °FScattered clouds.14 mph94%29.95 "HgN/A
7:20 AM57 °FScattered clouds.13 mph94%29.95 "HgN/A
6:20 AM57 °FPartly sunny.12 mph94%29.95 "HgN/A
5:50 AM55 °FPassing clouds.14 mph100%29.95 "HgN/A
5:20 AM55 °FPassing clouds.15 mph100%29.95 "HgN/A
4:50 AM55 °FPassing clouds.13 mph100%29.95 "HgN/A
4:20 AM55 °FPassing clouds.13 mph100%29.95 "HgN/A
3:50 AM55 °FPassing clouds.14 mph100%29.95 "HgN/A
9:20 PM
Tue, Jun 28
57 °FPassing clouds.17 mph94%29.95 "HgN/A
Weather by CustomWeather, © 2016

See weather overviewHow to use our weather pages